Location: Hermaringen
(48.5952°N, 10.2585°E)
Time: 08:29:45
(UTC+00:00)

Cosmos 489 Rocket - Pass Details

Date: 18 November 2025
Orbit: 952 x 982 km, 74.0° (Epoch: 13 December)

Event Time Altitude Azimuth Distance (km) Brightness Sun altitude
Rises 17:10:26 0° 338° (NNW) 3,668 7.7 -15.4°
Reaches altitude 10° 17:13:01 10° 341° (NNW) 2,713 6.9 -15.8°
Maximum altitude 17:19:16 66° 64° (ENE) 1,043 4.4 -16.9°
Drops below altitude 10° 17:25:26 10° 146° (SSE) 2,679 6.6 -17.9°
Sets 17:27:57 0° 149° (SSE) 3,618 7.3 -18.3°
